Weather History for Le Mars, IA

Change the Weather History Date:

Friday, October 25, 2013

  Actual Average Record
Temperature  
Mean Temperature 42 °F -  
Max Temperature 60 °F 61 °F 81 °F (1989)
Min Temperature 24 °F 35 °F 23 °F (1976)
Degree Days  
Heating Degree Days 23    
Moisture  
Dew Point 31 °F    
Average Humidity 68    
Maximum Humidity 100    
Minimum Humidity 39    
Precipitation  
Precipitation 0.00 in - - ()
Sea Level Pressure  
Sea Level Pressure 30.17 in    
Wind  
Wind Speed 7 mph (SSW)    
Max Wind Speed 26 mph    
Max Gust Speed 32 mph    
Visibility 10 miles    
Events      
Averages and records for this station are not official NWS values.
T = Trace of Precipitation, MM = Missing Value Source: NWS Daily Summary

Daily Weather History Graph

Daily Weather History Graph

Search for Another Location

Airport:

Trip Planner

Search our weather history database for the weather conditions in past years. The results will help you decide how hot, cold, wet, or windy it might be!

Date:

Astronomy

Oct. 25, 2013 Rise Set
Actual Time 7:50 AM CDT 6:26 PM CDT
Civil Twilight 7:21 AM CDT 6:55 PM CDT
Nautical Twilight 6:48 AM CDT 7:28 PM CDT
Astronomical Twilight 6:15 AM CDT 8:01 PM CDT
Moon 11:45 PM CDT (10/25) 1:33 PM CDT (10/25)
Length of Visible Light 11h 34m
Length of Day
10h 36m
Waning Gibbous, 62% of the Moon is Illuminated
Oct 25
Waning Gibbous
Oct 26
Last Quarter
Nov 3
New
Nov 9
First Quarter
Nov 17
Full

Hourly Weather History & Observations

Time (CDT) Temp. Windchill Dew Point Humidity Pressure Visibility Wind Dir Wind Speed Gust Speed Precip Events Conditions
12:15 AM 26.6 °F - 24.8 °F 93% 30.37 in 10.0 mi Calm Calm - N/A   Clear
12:35 AM 24.8 °F 20.5 °F 23.0 °F 93% 30.37 in 10.0 mi SSW 3.5 mph - N/A   Clear
12:55 AM 26.6 °F - 24.8 °F 93% 30.37 in 10.0 mi Calm Calm - N/A   Clear
1:15 AM 26.6 °F - 24.8 °F 93% 30.37 in 10.0 mi Calm Calm - N/A   Clear
1:35 AM 26.6 °F 22.6 °F 24.8 °F 93% 30.37 in 10.0 mi SSW 3.5 mph - N/A   Clear
1:55 AM 26.6 °F - 24.8 °F 93% 30.37 in 10.0 mi Calm Calm - N/A   Clear
2:15 AM 24.8 °F - 23.0 °F 93% 30.36 in 10.0 mi Calm Calm - N/A   Clear
2:35 AM 24.8 °F - 23.0 °F 93% 30.36 in 10.0 mi Calm Calm - N/A   Clear
2:55 AM 24.8 °F - 23.0 °F 93% 30.36 in 10.0 mi Calm Calm - N/A   Clear
3:15 AM 24.8 °F - 24.8 °F 100% 30.35 in 10.0 mi Calm Calm - N/A   Clear
3:35 AM 24.8 °F - 23.0 °F 93% 30.35 in 10.0 mi Calm Calm - N/A   Clear
3:55 AM 24.8 °F - 23.0 °F 93% 30.34 in 10.0 mi Calm Calm - N/A   Clear
4:15 AM 24.8 °F - 23.0 °F 93% 30.34 in 10.0 mi Calm Calm - N/A   Clear
4:35 AM 24.8 °F - 23.0 °F 93% 30.34 in 10.0 mi Calm Calm - N/A   Partly Cloudy
4:55 AM 24.8 °F - 23.0 °F 93% 30.33 in 10.0 mi Calm Calm - N/A   Partly Cloudy
5:15 AM 24.8 °F - 23.0 °F 93% 30.33 in 10.0 mi Calm Calm - N/A   Clear
5:35 AM 26.6 °F - 24.8 °F 93% 30.33 in 10.0 mi Calm Calm - N/A   Clear
5:55 AM 24.8 °F - 23.0 °F 93% 30.33 in 10.0 mi Calm Calm - N/A   Clear
6:15 AM 24.8 °F 19.1 °F 23.0 °F 93% 30.32 in 10.0 mi South 4.6 mph - N/A   Partly Cloudy
6:35 AM 26.6 °F 22.6 °F 24.8 °F 93% 30.32 in 10.0 mi SSW 3.5 mph - N/A   Mostly Cloudy
6:55 AM 26.6 °F 22.6 °F 24.8 °F 93% 30.31 in 10.0 mi South 3.5 mph - N/A   Mostly Cloudy
7:15 AM 28.4 °F 23.3 °F 26.6 °F 93% 30.30 in 10.0 mi SW 4.6 mph - N/A   Mostly Cloudy
7:35 AM 28.4 °F 23.3 °F 26.6 °F 93% 30.29 in 10.0 mi SW 4.6 mph - N/A   Overcast
7:55 AM 28.4 °F - 26.6 °F 93% 30.28 in 10.0 mi Calm Calm - N/A   Overcast
8:15 AM 32.0 °F 26.4 °F 28.4 °F 87% 30.28 in 10.0 mi SSW 5.8 mph - N/A   Overcast
8:35 AM 32.0 °F 25.6 °F 28.4 °F 87% 30.27 in 10.0 mi South 6.9 mph - N/A   Overcast
8:55 AM 33.8 °F 27.7 °F 28.4 °F 81% 30.27 in 10.0 mi South 6.9 mph - N/A   Overcast
9:15 AM 33.8 °F 27.0 °F 28.4 °F 81% 30.27 in 10.0 mi South 8.1 mph - N/A   Overcast
9:35 AM 35.6 °F 27.5 °F 30.2 °F 81% 30.27 in 10.0 mi South 11.5 mph - N/A   Mostly Cloudy
9:55 AM 37.4 °F 31.4 °F 30.2 °F 75% 30.26 in 10.0 mi South 8.1 mph - N/A   Overcast
10:15 AM 39.2 °F 32.5 °F 30.2 °F 70% 30.25 in - South 10.4 mph 16.1 mph N/A   Overcast
10:35 AM 41.0 °F 33.9 °F 32.0 °F 70% 30.24 in 10.0 mi SSW 12.7 mph - N/A   Scattered Clouds
10:55 AM 44.6 °F 37.4 °F 32.0 °F 61% 30.23 in 10.0 mi SSW 16.1 mph - N/A   Clear
11:15 AM 48.2 °F - 33.8 °F 58% 30.22 in 10.0 mi SSW 17.3 mph - N/A   Clear
11:35 AM 50.0 °F - 33.8 °F 54% 30.21 in 10.0 mi SSW 19.6 mph 26.5 mph N/A   Clear
11:55 AM 51.8 °F - 33.8 °F 50% 30.20 in 10.0 mi SSW 20.7 mph 28.8 mph N/A   Clear
12:15 PM 53.6 °F - 35.6 °F 51% 30.19 in 10.0 mi SSW 20.7 mph 27.6 mph N/A   Clear
12:35 PM 55.4 °F - 35.6 °F 47% 30.18 in 10.0 mi SSW 21.9 mph 28.8 mph N/A   Clear
12:55 PM 57.2 °F - 35.6 °F 44% 30.16 in 10.0 mi SSW 24.2 mph - N/A   Clear
1:15 PM 59.0 °F - 37.4 °F 45% 30.15 in 10.0 mi SSW 21.9 mph - N/A   Clear
1:35 PM 59.0 °F - 35.6 °F 42% 30.13 in 10.0 mi SW 23.0 mph 28.8 mph N/A   Clear
1:55 PM 59.0 °F - 37.4 °F 45% 30.11 in 10.0 mi SSW 24.2 mph 29.9 mph N/A   Clear
2:15 PM 59.0 °F - 35.6 °F 42% 30.11 in 10.0 mi SW 23.0 mph 31.1 mph N/A   Clear
2:35 PM 60.8 °F - 37.4 °F 42% 30.09 in 10.0 mi SW 23.0 mph 31.1 mph N/A   Clear
2:55 PM 60.8 °F - 37.4 °F 42% 30.08 in 10.0 mi SSW 23.0 mph 29.9 mph N/A   Clear
3:15 PM 60.8 °F - 35.6 °F 39% 30.07 in 10.0 mi SSW 26.5 mph - N/A   Clear
3:35 PM 60.8 °F - 35.6 °F 39% 30.06 in 10.0 mi SW 26.5 mph - N/A   Clear
3:55 PM 60.8 °F - 35.6 °F 39% 30.05 in 10.0 mi SW 21.9 mph 29.9 mph N/A   Clear
4:15 PM 60.8 °F - 35.6 °F 39% 30.04 in 10.0 mi SW 19.6 mph 27.6 mph N/A   Clear
4:35 PM 60.8 °F - 35.6 °F 39% 30.03 in 10.0 mi SW 21.9 mph 32.2 mph N/A   Clear
4:55 PM 60.8 °F - 35.6 °F 39% 30.02 in 10.0 mi SW 23.0 mph 29.9 mph N/A   Clear
5:15 PM 60.8 °F - 35.6 °F 39% 30.01 in 10.0 mi SW 18.4 mph 26.5 mph N/A   Clear
5:35 PM 59.0 °F - 35.6 °F 42% 30.00 in 10.0 mi SW 17.3 mph 25.3 mph N/A   Clear
5:55 PM 57.2 °F - 37.4 °F 48% 30.00 in 10.0 mi SSW 16.1 mph 21.9 mph N/A   Clear
6:15 PM 57.2 °F - 35.6 °F 44% 29.99 in 10.0 mi SSW 17.3 mph 23.0 mph N/A   Clear
6:35 PM 55.4 °F - 35.6 °F 47% 29.99 in 10.0 mi SSW 16.1 mph - N/A   Clear
6:55 PM 53.6 °F - 35.6 °F 51% 29.98 in 10.0 mi SSW 16.1 mph - N/A   Clear
7:15 PM 53.6 °F - 35.6 °F 51% 29.98 in 10.0 mi SSW 15.0 mph 20.7 mph N/A   Clear
7:35 PM 53.6 °F - 35.6 °F 51% 29.99 in 10.0 mi SSW 13.8 mph - N/A   Clear
7:55 PM 51.8 °F - 35.6 °F 54% 30.00 in 10.0 mi SSW 10.4 mph 16.1 mph N/A   Clear
8:15 PM 50.0 °F - 35.6 °F 58% 29.99 in 10.0 mi SSW 11.5 mph - N/A   Clear
8:35 PM 50.0 °F - 35.6 °F 58% 29.98 in 10.0 mi SSW 12.7 mph - N/A   Clear
8:55 PM 50.0 °F - 35.6 °F 58% 29.98 in 10.0 mi SSW 10.4 mph - N/A   Clear
9:15 PM 50.0 °F - 35.6 °F 58% 29.98 in 10.0 mi SSW 11.5 mph - N/A   Clear
9:35 PM 50.0 °F - 35.6 °F 58% 29.98 in 10.0 mi SSW 10.4 mph - N/A   Clear
9:55 PM 48.2 °F - 35.6 °F 62% 29.98 in 10.0 mi SSW 10.4 mph - N/A   Clear
10:15 PM 48.2 °F - 35.6 °F 62% 29.99 in 10.0 mi SSW 8.1 mph - N/A   Clear
10:35 PM 46.4 °F 41.9 °F 35.6 °F 66% 29.99 in 10.0 mi SSW 9.2 mph - N/A   Clear
10:55 PM 46.4 °F 41.9 °F 35.6 °F 66% 29.98 in 10.0 mi SSW 9.2 mph - N/A   Clear
11:15 PM 46.4 °F 42.9 °F 35.6 °F 66% 29.98 in 10.0 mi SSW 6.9 mph - N/A   Clear
11:35 PM 46.4 °F 42.4 °F 35.6 °F 66% 29.97 in 10.0 mi SSW 8.1 mph - N/A   Clear
11:55 PM 46.4 °F 42.4 °F 35.6 °F 66% 29.97 in 10.0 mi SSW 8.1 mph - N/A   Clear